| time (UTC) | temp F | wind direction | speed MPH | gust MPH | rain 1hr in | rain 24hr in | rain mn in | humidity % | barometer mb |
| 20260905093506 | 57 | 255 | 20.0 | 27.0 | 0.00 | 0.00 | 0.00 | 1019.0 | |
| 20260905090506 | 57 | 255 | 20.0 | 27.0 | 0.00 | 0.06 | 0.00 | 1019.0 | |
| 20260905083506 | 56 | 255 | 20.0 | 27.0 | 0.00 | 0.06 | 0.00 | 1018.0 | |
| 20260905080506 | 56 | 255 | 20.0 | 27.0 | 0.00 | 0.06 | 0.00 | 1018.0 | |
| 20260905073506 | 55 | 255 | 20.0 | 27.0 | 0.00 | 0.06 | 0.00 | 1017.0 | |
| 20260905070506 | 55 | 255 | 20.0 | 27.0 | 0.00 | 0.06 | 0.00 | 1017.0 | |
| 20260905063505 | 55 | 256 | 20.0 | 28.0 | 0.00 | 0.06 | 0.00 | 1016.0 | |
| 20260905060506 | 55 | 253 | 20.0 | 28.0 | 0.00 | 0.06 | 0.00 | 1016.0 | |
| 20260905053505 | 55 | 254 | 20.0 | 28.0 | 0.00 | 0.06 | 0.00 | 1015.0 | |
| 20260905050505 | 55 | 254 | 20.0 | 28.0 | 0.00 | 0.06 | 0.00 | 1015.0 | |
| 20260905043505 | 55 | 256 | 21.0 | 28.0 | 0.00 | 0.06 | 0.00 | 1014.0 | |
| 20260905040505 | 55 | 256 | 21.0 | 28.0 | 0.00 | 0.06 | 0.00 | 1014.0 | |
| 20260905033506 | 55 | 259 | 21.0 | 29.0 | 0.00 | 0.06 | 0.00 | 1014.0 | |
| 20260905030505 | 55 | 259 | 21.0 | 29.0 | 0.00 | 0.06 | 0.00 | 1013.0 | |
| 20260905023506 | 56 | 259 | 22.0 | 30.0 | 0.00 | 0.06 | 0.00 | 1013.0 | |
| 20260905020506 | 56 | 259 | 22.0 | 30.0 | 0.00 | 0.06 | 0.00 | 1013.0 | |
| 20260905013506 | 56 | 256 | 23.0 | 32.0 | 0.00 | 0.06 | 0.00 | 1012.0 | |
| 20260905010506 | 56 | 256 | 23.0 | 32.0 | 0.00 | 0.06 | 0.00 | 1012.0 | |
| 20260905003506 | 57 | 255 | 24.0 | 33.0 | 0.00 | 0.06 | 0.00 | 1011.0 | |
| 20260905000506 | 57 | 252 | 23.0 | 32.0 | 0.00 | 0.06 | 0.00 | 1011.0 | |
| 20260904233506 | 57 | 252 | 23.0 | 32.0 | 0.00 | 0.06 | 0.00 | 1010.0 | |
| 20260904230506 | 57 | 252 | 23.0 | 32.0 | 0.00 | 0.06 | 0.00 | 1010.0 | |
| 20260904223505 | 57 | 247 | 23.0 | 32.0 | 0.00 | 0.06 | 0.00 | 1010.0 | |
| 20260904220506 | 57 | 247 | 23.0 | 32.0 | 0.00 | 0.06 | 0.00 | 1010.0 | |
| 20260904213505 | 58 | 251 | 24.0 | 32.0 | 0.00 | 0.06 | 0.00 | 1010.0 | |
| 20260904210505 | 58 | 251 | 24.0 | 32.0 | 0.00 | 0.06 | 0.00 | 1010.0 | |
| 20260904203505 | 59 | 251 | 22.0 | 30.0 | 0.00 | 0.06 | 0.00 | 1009.0 | |
| 20260904200505 | 59 | 251 | 22.0 | 30.0 | 0.00 | 0.06 | 0.00 | 1009.0 | |
| 20260904193505 | 59 | 253 | 24.0 | 32.0 | 0.00 | 0.06 | 0.00 | 1009.0 | |
| 20260904190505 | 59 | 253 | 24.0 | 32.0 | 0.00 | 0.06 | 0.00 | 1008.0 | |
| 20260904183505 | 60 | 255 | 26.0 | 35.0 | 0.00 | 0.06 | 0.00 | 1007.0 | |
| 20260904180505 | 60 | 251 | 27.0 | 36.0 | 0.00 | 0.06 | 0.00 | 1007.0 | |
| 20260904173506 | 60 | 252 | 26.0 | 35.0 | 0.00 | 0.06 | 0.00 | 1006.0 | |
| 20260904170506 | 60 | 252 | 26.0 | 35.0 | 0.00 | 0.06 | 0.00 | 1006.0 | |
| 20260904163506 | 60 | 255 | 27.0 | 36.0 | 0.00 | 0.06 | 0.00 | 1006.0 | |
| 20260904160506 | 60 | 255 | 27.0 | 36.0 | 0.00 | 0.06 | 0.00 | 1006.0 | |
| 20260904153506 | 61 | 257 | 28.0 | 38.0 | 0.00 | 0.06 | 0.00 | 1005.0 | |
| 20260904150506 | 61 | 257 | 28.0 | 38.0 | 0.00 | 0.06 | 0.00 | 1005.0 | |
| 20260904143506 | 60 | 258 | 28.0 | 38.0 | 0.00 | 0.06 | 0.00 | 1005.0 | |
| 20260904140506 | 60 | 258 | 28.0 | 38.0 | 0.00 | 0.06 | 0.00 | 1005.0 | |
| 20260904133505 | 61 | 257 | 28.0 | 39.0 | 0.00 | 0.06 | 0.00 | 1004.0 | |
| 20260904130506 | 61 | 257 | 28.0 | 39.0 | 0.00 | 0.06 | 0.00 | 1004.0 | |
| 20260904123505 | 60 | 255 | 31.0 | 42.0 | 0.00 | 0.06 | 0.00 | 1003.0 | |
| 20260904120505 | 60 | 252 | 28.0 | 37.0 | 0.00 | 0.06 | 0.00 | 1003.0 | |
| 20260904113505 | 59 | 249 | 30.0 | 40.0 | 0.00 | 0.06 | 0.00 | 1002.0 | |
| 20260904110505 | 59 | 249 | 30.0 | 40.0 | 0.00 | 0.06 | 0.00 | 1002.0 | |
| 20260904103505 | 59 | 246 | 29.0 | 39.0 | 0.00 | 0.06 | 0.00 | 1002.0 | |
| 20260904100505 | 59 | 246 | 29.0 | 39.0 | 0.00 | 0.06 | 0.00 | 1002.0 |